www.pogodaiklimat.ru

Погода и климат >> Архив погоды >> Таиланд >> Утай Тани


ПОГОДА в Утай Тани

  • Прогноз погоды в Утай Тани
  • Монитор погоды в Утай Тани

АРХИВ ПОГОДЫ в Утай Тани

Время (UTC), дата Ветер
(напр.,м/с)
 
Видим.   Явления Облачность Т
(С)
Тd
(С)
f
(%)
Тe
(С)
Тes
(С)
Комфортность P
(гПа)
Po
(гПа)
Тmin
(С)
Tmax
(С)
R
(мм)
R24
(мм)
S
(см)
09 15.08 штиль 0 10 км 8/3 300 м
[Cb calv Ac lent Cs]
+35.1 +25.0 56 +49 +53 опасность
перегрева
1003.3 1000.4
12 15.08 штиль 0 8000 м гроза, ливневой дождь 10/4 300 м
[Cb cap Ac As Cs]
+27.3 +25.0 87 +39 +39 очень
душно
1004.0 1001.0 +35.2 12
15 15.08 штиль 0 8000 м дымка {гроза, дождь} 9/4 600 м
[Cu Sc Ac trans Cs]
+27.5 +25.4 88 +40 +40 очень
душно
1005.7 1002.7 0.3
18 15.08 штиль 0 8000 м дымка {гроза, дождь} 8/3 600 м
[Sc Ac lent Cs]
+27.1 +26.2 95 +41 +41 опасность
перегрева
1005.2 1002.2 12
21 15.08 штиль 0 8000 м дымка 8/3 600 м
[Sc Ac lent Cs]
+26.4 +24.7 90 +37 +37 очень
душно
1004.6 1001.5
00 16.08 штиль 0 10 км 10/3 600 м
[Sc Ac lent Cs]
+26.0 +25.0 94 +37 +38 очень
душно
1005.2 1002.2 +24.8
03 16.08 штиль 0 10 км 10/1 600 м
[Sc Ac lent Cs]
+30.5 +25.7 76 +45 +55 опасность
перегрева
1006.7 1003.7
06 16.08 штиль 0 10 км 10/4 600 м
[Cu Sc Ac trans Cs]
+34.4 +24.3 56 +47 +55 опасность
перегрева
1005.1 1002.2
09 16.08 штиль 0 10 км 8/3 600 м
[Cu med, cong Ac lent Cs]
+34.8 +23.5 52 +46 +50 опасность
перегрева
1002.3 999.4
12 16.08 штиль 0 10 км 9/4 600 м
[Cu Sc Ac lent Cs]
+31.8 +25.8 71 +47 +47 опасность
перегрева
1002.6 999.7 +35.6
15 16.08 штиль 0 10 км 10/6 600 м
[Cu Sc Ac As Cs]
+28.6 +25.3 82 +42 +42 опасность
перегрева
1005.3 1002.3
18 16.08 штиль 0 10 км 10/3 600 м
[Cu med, cong Ac trans Cs]
+27.6 +25.8 90 +41 +41 опасность
перегрева
1005.3 1002.3
21 16.08 штиль 0 10 км 9/3 600 м
[Cu med, cong Ac trans Cs]
+26.8 +24.0 85 +37 +37 очень
душно
1005.2 1002.2
00 17.08 штиль 0 10 км 9/3 600 м
[Cu med, cong Ac lent Cs]
+26.3 +24.4 89 +37 +37 очень
душно
1005.3 1002.3 +24.9
03 17.08 штиль 0 10 км 9/4 600 м
[Cu Sc Ac lent Cs]
+31.2 +22.7 61 +41 +48 опасность
перегрева
1006.5 1003.5
06 17.08 штиль 0 10 км 10/3 600 м
[Cu med, cong Ac trans Cs]
+33.8 +25.7 63 +49 +59 опасность
перегрева
1006.2 1003.3
09 17.08 штиль 0 10 км гроза, ливневой дождь 10/4 300 м
[Cb cap Ac As Cs]
+26.6 +25.0 91 +38 +41 очень
душно
1004.9 1001.9 13
12 17.08 штиль 0 8000 м слаб. дождь {гроза} 10/5 600 м
[Cu Sc Ac As Cs]
+27.2 +26.2 94 +41 +41 опасность
перегрева
1006.2 1003.2 +34.6 0.9
15 17.08 штиль 0 8000 м дымка {дождь} 10/5 600 м
[Sc Ac As Cs]
+27.1 +25.2 89 +39 +39 очень
душно
1009.2 1006.1 0.0
18 17.08 штиль 0 8000 м дымка {дождь} 10/5 600 м
[Sc Ac As Cs]
+26.3 +25.3 94 +38 +38 очень
душно
1008.3 1005.3 14
21 17.08 штиль 0 8000 м дымка 10/4 600 м
[Sc Ac As Cs]
+26.2 +24.6 91 +37 +37 очень
душно
1007.9 1004.9
00 18.08 штиль 0 10 км слаб. дождь 10/4 600 м
[Sc Ac trans Cs]
+26.0 +24.6 92 +37 +37 очень
душно
1009.3 1006.3 +25.0 0.0
03 18.08 штиль 0 10 км {дождь} 8/3 600 м
[Sc Ac lent Cs]
+30.8 +23.9 67 +42 +52 опасность
перегрева
1010.1 1007.1 0.0
06 18.08 штиль 0 10 км {дождь} 8/5 600 м
[Cu Sc Ac trans Cs]
+32.8 +25.3 65 +47 +57 опасность
перегрева
1008.8 1005.8 0.0
09 18.08 штиль 0 10 км 8/4 600 м
[Cu Sc Ac trans Cs]
+33.9 +25.5 62 +49 +53 опасность
перегрева
1006.8 1003.9
12 18.08 штиль 0 10 км гроза без осадков 9/4 300 м
[Cb cap Ac trans Cs]
+27.7 +23.6 78 +38 +38 очень
душно
1008.0 1005.0 +33.9
15 18.08 штиль 0 10 км 9/4 600 м
[Cu Sc Ac trans Cs]
+26.7 +24.5 88 +38 +38 очень
душно
1010.1 1007.1
18 18.08 штиль 0 10 км 10/4 600 м
[Sc Ac As Cs]
+26.6 +25.0 91 +38 +38 очень
душно
1009.2 1006.2
21 18.08 штиль 0 10 км 10/5 600 м
[Sc Ac As Cs]
+26.6 +25.0 91 +38 +38 очень
душно
1007.6 1004.5
00 19.08 штиль 0 10 км 9/4 600 м
[Sc Ac trans Cs]
+26.1 +23.9 88 +36 +36 очень
душно
1008.4 1005.3 +25.0
03 19.08 штиль 0 10 км 8/3 600 м
[Cu Sc Ac trans Cs]
+30.5 +23.6 67 +42 +51 опасность
перегрева
1009.3 1006.3
06 19.08 штиль 0 10 км 9/5 600 м
[Cu Sc Ac und Cs]
+34.9 +23.4 51 +45 +54 опасность
перегрева
1007.3 1004.3
09 19.08 штиль 0 10 км 10/8 600 м
[Cu Sc Ac As Cs]
+34.8 +25.6 59 +50 +51 опасность
перегрева
1005.0 1002.1
12 19.08 штиль 0 10 км гроза, ливневой дождь 10/6 300 м
[Cb cap Ac As]
+25.6 +25.0 96 +36 +36 очень
душно
1006.2 1003.1 +34.7 36
15 19.08 штиль 0 7000 м слаб. дождь {гроза} 10/6 600 м
[Cu Sc Ac As]
+25.8 +24.6 93 +36 +36 очень
душно
1007.9 1004.9 2
18 19.08 штиль 0 10 км {гроза, дождь} 10/6 600 м
[Cu Sc Ac As Cs]
+25.8 +24.9 95 +37 +37 очень
душно
1006.7 1003.7 2
21 19.08 штиль 0 10 км 8/1 600 м
[Cu med, cong Ac lent Cs]
+25.9 +24.9 94 +37 +37 очень
душно
1005.6 1002.6
00 20.08 штиль 0 10 км 10/6 600 м
[Cu Sc Ac As Cs]
+25.8 +25.4 98 +38 +38 очень
душно
1005.8 1002.8 +24.9
03 20.08 штиль 0 10 км 9/3 600 м
[Cu med, cong Ac lent Cs]
+30.5 +24.7 71 +43 +51 опасность
перегрева
1006.4 1003.4
06 20.08 штиль 0 10 км 9/4 600 м
[Cu Sc Ac trans Cs]
+32.7 +23.0 57 +43 +53 опасность
перегрева
1005.1 1002.1
09 20.08 штиль 0 10 км 8/5 600 м
[Cu Sc Ac As Cs]
+33.1 +25.7 65 +48 +52 опасность
перегрева
1002.5 999.6
12 20.08 штиль 0 8000 м слаб. ливневой дождь, в посл. час гроза 10/6 300 м
[Cb cap Ac As Cs]
+26.6 +25.7 95 +39 +39 очень
душно
1004.1 1001.1 +33.7 29
15 20.08 штиль 0 8000 м слаб. дождь 10/4 300 м
[Cb cap Ac As Cs]
+26.5 +25.5 94 +39 +39 очень
душно
1005.9 1002.9 3
18 20.08 штиль 0 10 км {дождь} 10/3 600 м
[Sc Ac As Cs]
+26.3 +25.6 96 +39 +39 очень
душно
1004.4 1001.4 0.1
21 20.08 штиль 0 10 км 8/3 600 м
[Sc Ac trans Cs]
+25.8 +24.9 95 +37 +37 очень
душно
1003.9 1000.8
00 21.08 штиль 0 10 км 9/3 600 м
[Sc Ac trans Cs]
+25.6 +24.1 91 +35 +36 очень
душно
1004.7 1001.7 +24.4
03 21.08 штиль 0 10 км 9/5 600 м
[Sc Ac trans Cs]
+29.5 +23.9 72 +41 +47 опасность
перегрева
1006.0 1003.0
06 21.08 штиль 0 10 км 9/4 600 м
[Cu Sc Ac trans Cs]
+32.4 +22.8 57 +42 +52 опасность
перегрева
1005.1 1002.1
09 21.08 штиль 0 10 км в посл. час дождь 8/5 600 м
[Cu Sc Ac As Cs]
+32.0 +24.0 63 +44 +48 опасность
перегрева
1003.1 1000.1 0.0
12 21.08 штиль 0 10 км {дождь} 10/5 600 м
[Sc Ac As Cs]
+28.6 +24.9 80 +41 +41 опасность
перегрева
1004.4 1001.4 +33.7 0.0
15 21.08 штиль 0 10 км 10/3 600 м
[Sc Ac As Cs]
+27.8 +26.1 90 +42 +42 опасность
перегрева
1006.5 1003.5
18 21.08 штиль 0 10 км 9/3 600 м
[Sc Ac As Cs]
+27.1 +25.1 89 +39 +39 очень
душно
1006.2 1003.2
21 21.08 штиль 0 10 км 9/0
[Cs]
+26.3 +24.6 90 +37 +37 очень
душно
1005.6 1002.6
00 22.08 штиль 0 10 км 8/3 600 м
[Sc Ac trans Cs]
+26.4 +24.5 89 +37 +38 очень
душно
1006.8 1003.8 +25.2
03 22.08 штиль 0 10 км 9/4 600 м
[Sc Ac lent Cs]
+29.6 +24.4 74 +42 +49 опасность
перегрева
1008.0 1005.0
06 22.08 штиль 0 10 км 10/6 600 м
[Cu Sc Ac As Cs]
+32.4 +24.7 64 +45 +51 опасность
перегрева
1006.3 1003.3

 

Местоположение метеостанции Утай Тани (Таиланд): широта 15.38 долгота 100.04 высота над уровнем моря 26 м.

В архиве по умолчанию представлена погода в Утай Тани за последнюю неделю. Архивные данные за месяц целиком и за предыдущие месяцы, начиная с января 2011 года, Вы можете получить, выбрав интересующий диапазон дат из раскрывающегося списка и нажав кнопку "Ввод!".


*Определитесь, кто Вы:
робот инопланетянин человек

Внимание! Время в таблицах - всемирное. Для получения местного времени необходимо прибавить поправку, которая равна 7 ч.

Смотрите также архив погоды в соседних городах и на ближайших метеорологических станциях:

Погода в Чайнат Агромете (Таиланд) (30 км)
Погода в Накхон Саван (Таиланд) (48 км)
Погода в Такфа Агромете (Таиланд) (49 км)
Погода в Лопбури (Таиланд) (89 км)
Погода в Лаем-Чабанге (Таиланд) (96 км)
Погода в Суфанбури (Таиланд) (102 км)
Погода в Вичан Бури (Таиланд) (118 км)
Погода в Пичит Агромете (Таиланд) (120 км)
Погода в Аюттхая (Таиланд) (120 км)
Погода в У-Тхонг Агромете (Таиланд) (122 км)

Пояснения к столбцам:

Ветер - указаны скорость ветра в м/с - средняя за 10 мин, порывы в срок и между сроками (в фигурных скобках) и направление, откуда дует ветер: С - северный, СВ - северо-восточный, В - восточный, ЮВ - юго-восточный, Ю - южный, ЮЗ - юго-западный, З - западный, СЗ - северо-западный.
Видимость - горизонтальная дальность видимости в метрах или километрах. При видимости от 1 до 10 км при отсутствии осадков обычно наблюдается дымка, при ухудшении видимости до 1 км и менее - туман. В сухую погоду видимость может ухудшаться дымом, пылью или мглою.
Явления - указаны атмосферные явления, наблюдавшиеся в срок или в последний час перед сроком; фигурными скобками обозначены явления, наблюдавшиеся между сроками (за 1-3 часа до срока); квадратными скобками обозначены град или гололедные отложения с указанием их диаметра в мм.
Облачность - указаны через наклонную черту общая и нижняя облачность в баллах и высота нижней границы облаков в метрах; квадратными скобками обозначены формы облаков: Ci - перистые, Cs - перисто-слоистые, Cc - перисто-кучевые, Ac - высококучевые, As - высокослоистые, Sc - слоисто-кучевые, Ns - слоисто-дождевые, Cu - кучевые, Cb - кучево-дождевые. Подробнее классификацию облаков см. в Атласе облаков (PDF).
T - Температура воздуха - температура, измеренная на высоте 2 м над землей.
Td - Температура точки росы - температура, при понижении до которой содержащийся в воздухе водяной пар достигнет насыщения.
f - Относительная влажность воздуха - влажноcть воздуха, измеренная на высоте 2 м над землей.
Te - Эффективная температура - температура, которую ощущает одетый по сезону человек в тени. Характеристика душности погоды. При расчете учитывается влияние влажности воздуха и скорости ветра на теплоощущения человека.
Tes - Эффективная температура на солнце - температура, которую ощущает человек, с поправкой на солнечный нагрев. Характеристика знойности погоды. Зависит от высоты солнца над горизонтом, облачности и скорости ветра. Ночью, в пасмурную погоду, а также при ветре 12 м/с и более поправка равна нулю.
P - Атмосферное давление - приведенное к уровню моря атмосферное давление.
Po - Атмосферное давление - измеренное на уровне метеостанции атмосферное давление.
Tmin - Минимальная температура - минимум температуры воздуха на высоте 2 м над землей.
Tmax - Максимальная температура - максимум температуры воздуха на высоте 2 м над землей.
R - Количество осадков - Количество выпавших осадков за период времени, мм. При наведении курсора мыши на число - период времени, за который выпало указанное количество осадков.
R24 - Количество осадков - Количество выпавших осадков за 24 часа, мм.
S - Снежный покров - Высота снежного покрова, см. При наведении курсора мыши на число - состояние снежного покрова и степень покрытия местности в баллах.